TimeHST,TemperatureF,Dew PointF,Humidity,Sea Level PressureIn,VisibilityMPH,Wind Direction,Wind SpeedMPH,Gust SpeedMPH,PrecipitationIn,Events,Conditions,WindDirDegrees,DateUTC
12:58 AM,69.1,63.9,83,29.93,10.0,SE,4.6,-,N/A,,Clear,140,2013-12-07 10:58:00
1:58 AM,68.2,63.1,84,29.93,10.0,SSW,2.3,-,N/A,,Clear,210,2013-12-07 11:58:00
2:58 AM,66.7,62.2,85,29.91,10.0,Calm,Calm,-,N/A,,Clear,0,2013-12-07 12:58:00
3:58 AM,64.9,61.5,89,29.92,10.0,WNW,2.3,-,N/A,,Clear,290,2013-12-07 13:58:00
4:58 AM,63.3,60.4,90,29.93,10.0,NW,3.5,-,N/A,,Clear,310,2013-12-07 14:58:00
5:58 AM,62.6,60.1,91,29.94,10.0,WNW,2.3,-,N/A,,Clear,290,2013-12-07 15:58:00
6:58 AM,63.9,61.3,91,29.94,10.0,Calm,Calm,-,N/A,,Scattered Clouds,0,2013-12-07 16:58:00
7:58 AM,65.1,62.6,92,29.95,10.0,Calm,Calm,-,N/A,,Partly Cloudy,0,2013-12-07 17:58:00
8:13 AM,68.0,64.4,88,29.98,10.0,Calm,Calm,-,N/A,,Scattered Clouds,0,2013-12-07 18:13:00
8:58 AM,72.1,66.4,82,29.96,10.0,South,2.3,-,N/A,,Partly Cloudy,170,2013-12-07 18:58:00
9:58 AM,75.6,65.8,72,29.97,10.0,SSW,5.8,-,N/A,,Scattered Clouds,200,2013-12-07 19:58:00
10:58 AM,77.0,64.9,66,29.96,10.0,Variable,5.8,-,N/A,,Clear,0,2013-12-07 20:58:00
11:58 AM,78.4,62.6,58,29.94,10.0,SE,6.9,-,N/A,,Clear,140,2013-12-07 21:58:00
12:58 PM,79.0,62.4,57,29.91,10.0,South,6.9,-,N/A,,Clear,170,2013-12-07 22:58:00
1:58 PM,79.3,61.7,55,29.89,10.0,South,6.9,-,N/A,,Clear,170,2013-12-07 23:58:00
2:58 PM,80.1,62.6,55,29.89,10.0,SE,5.8,-,N/A,,Clear,130,2013-12-08 00:58:00
3:58 PM,79.2,63.7,59,29.90,10.0,Variable,5.8,-,N/A,,Clear,0,2013-12-08 01:58:00
4:58 PM,77.4,63.3,62,29.92,10.0,Variable,4.6,-,N/A,,Scattered Clouds,0,2013-12-08 02:58:00
5:58 PM,74.7,64.4,70,29.94,10.0,Variable,1.2,-,N/A,,Overcast,0,2013-12-08 03:58:00
6:58 PM,72.0,63.9,76,29.96,10.0,NW,1.2,-,N/A,,Clear,310,2013-12-08 04:58:00
7:58 PM,68.0,63.1,84,29.97,10.0,Calm,Calm,-,N/A,,Clear,0,2013-12-08 05:58:00
8:58 PM,66.2,62.6,88,29.99,10.0,Calm,Calm,-,N/A,,Clear,0,2013-12-08 06:58:00
9:58 PM,63.9,61.0,90,29.99,10.0,WNW,4.6,-,N/A,,Clear,300,2013-12-08 07:58:00
10:58 PM,63.9,60.8,90,29.98,10.0,Calm,Calm,-,N/A,,Clear,0,2013-12-08 08:58:00
11:58 PM,63.1,60.6,91,29.98,10.0,ENE,1.2,-,N/A,,Partly Cloudy,60,2013-12-08 09:58:00